Location: Unspecified
(37.6100°N, 2.7800°W)
Time: 07:56:30
(UTC+00:00)

Tiangong 1 - Visible Passes

Search period start: 22 September 2017 00:00
Search period end: 02 October 2017 00:00
Orbit: 303 x 328 km, 42.8° (Epoch: 21 September)

Date Brightness Start Highest point End Pass type
(mag) Time Alt. Az. Time Alt. Az. Time Alt. Az.
22 Sep 1.6 05:10:46 12° WNW 05:13:07 43° NNE 05:15:42 10° E visible
23 Sep 4.0 03:53:07 14° ENE 03:53:07 14° ENE 03:53:43 10° ENE visible
23 Sep 0.6 05:24:06 10° WNW 05:26:46 89° N 05:29:27 10° ESE visible
24 Sep 3.3 04:06:18 22° ENE 04:06:18 22° ENE 04:07:33 10° E visible
25 Sep 2.3 04:19:31 33° E 04:19:31 33° E 04:21:11 10° ESE visible
26 Sep 2.1 04:32:47 30° SSE 04:32:47 30° SSE 04:34:25 10° SE visible
27 Sep 2.9 04:46:06 15° S 04:46:06 15° S 04:46:56 10° SSE visible
